This is the latest recevied weather packets stored in our database for station/object N4YH-13. If no packets are shown the sender has not sent any weather packets the latest 10 day(s).
| Time | Temp. | Humidity | Pressure | Rain* | Wind** | Luminosity | Snow |
|---|---|---|---|---|---|---|---|
| 1777388884 | 14.44° C | 100% | 1018.1 hPa | 2.29 mm | - | - | - |
| 1777388763 | 14.44° C | 100% | 1018.1 hPa | 2.03 mm | - | - | - |
| 1777388643 | 14.44° C | 100% | 1018.1 hPa | 2.29 mm | - | - | - |
| 1777388523 | 14.44° C | 100% | 1018 hPa | 2.29 mm | - | - | - |
| 1777388404 | 13.89° C | 100% | 1018.3 hPa | 2.29 mm | - | - | - |
| 1777388284 | 13.89° C | 99% | 1018.3 hPa | 2.29 mm | - | - | - |
| 1777388164 | 13.89° C | 100% | 1018.3 hPa | 2.29 mm | - | - | - |
| 1777388044 | 13.89° C | 100% | 1018.3 hPa | 2.54 mm | - | - | - |
| 1777387923 | 13.89° C | 100% | 1018.3 hPa | 2.54 mm | - | - | - |
| 1777387803 | 13.89° C | 100% | 1018.3 hPa | 2.54 mm | - | - | - |
| 1777387683 | 13.89° C | 100% | 1018.2 hPa | 2.54 mm | - | - | - |
| 1777387563 | 13.89° C | 99% | 1018.8 hPa | 2.79 mm | - | - | - |
| 1777387444 | 13.33° C | 99% | 1018.8 hPa | 2.54 mm | - | - | - |
| 1777387324 | 13.33° C | 99% | 1018.8 hPa | 2.54 mm | - | - | - |
| 1777387204 | 13.33° C | 99% | 1018.8 hPa | 2.79 mm | - | - | - |
| 1777387084 | 13.33° C | 99% | 1018.8 hPa | 2.54 mm | - | - | - |
| 1777386963 | 13.33° C | 99% | 1018.8 hPa | 2.79 mm | - | - | - |
| 1777386843 | 13.33° C | 99% | 1018.8 hPa | 2.79 mm | - | - | - |
| 1777386723 | 13.33° C | 99% | 1018.8 hPa | 3.05 mm | - | - | - |
| 1777386604 | 13.33° C | 99% | 1017.8 hPa | 3.05 mm | - | - | - |
| 1777386484 | 13.33° C | 99% | 1017.8 hPa | 3.3 mm | - | - | - |
| 1777386364 | 13.33° C | 99% | 1017.8 hPa | 3.05 mm | - | - | - |
| 1777386243 | 13.33° C | 99% | 1017.8 hPa | 3.05 mm | - | - | - |
| 1777386123 | 13.33° C | 99% | 1017.8 hPa | 3.3 mm | - | - | - |
| 1777386003 | 13.33° C | 99% | 1017.8 hPa | 3.3 mm | - | - | - |
* Rain latest hour (hover to see other rain measurements)
** Current wind speed in m/s (hover to see current wind gust speed)